Regional Weather Roundup
Issued by NWS Newport/Morehead, NC

Home | Current Version | Previous Version | Text Only | Print | Product List | Glossary On
Versions: 1 2 3 4 5 6 7 8 9 10 11 12 13 14 15 16 17 18 19 20 21 22 23 24 25 26 27 28 29 30 31 32 33 34 35 36 37 38 39 40 41 42 43 44 45 46 47 48 49 50
000
ASUS42 KMHX 040525
RWRMHX
WEATHER ROUNDUP FOR EASTERN NORTH CAROLINA
NATIONAL WEATHER SERVICE NEWPORT/MOREHEAD CITY NC
100 AM EDT MON MAY 04 2015

NOTE: "FAIR" INDICATES FEW OR NO CLOUDS BELOW 12,000 FEET
WITH NO SIGNIFICANT WEATHER AND/OR OBSTRUCTIONS TO VISIBILITY

NCZ015>017-031-032-045>047-102-103-040600-
NORTH COAST

CITY           SKY/WX    TMP DP  RH WIND       PRES   REMARKS
EDENTON        CLEAR     63  51  63 SW5       30.24R
ELIZABETH CITY CLEAR     60  49  66 SW9       30.23R
KITTY HAWK     CLEAR     62  51  66 SW5       30.23S
MANTEO         CLEAR     62  50  65 SW7       30.25R

$$

NCZ045>047-081-094-103-104-040600-
CENTRAL COAST

CITY           SKY/WX    TMP DP  RH WIND       PRES   REMARKS
FRISCO         MOCLDY    59  51  75 W7        30.25S
SWANQUARTER      N/A     64 N/A N/A W2        30.21S

$$

NCZ095-097-098-100-101-040600-
SOUTHERN COAST

CITY           SKY/WX    TMP DP  RH WIND       PRES   REMARKS
BEAUFORT       CLEAR     60  58  92 CALM      30.26R
CEDAR ISLAND     N/A     63 N/A N/A SW2       30.30S
JACKSONVILLE   CLEAR     55  52  89 CALM      30.25S
PINEY ISLAND   MOCLDY   N/A N/A N/A SW5       30.25S
WILMINGTON     CLEAR     56  53  90 CALM      30.25S


$$

NCZ011>013-027>030-043-044-078>080-089-090>093-098-040600-
COASTAL PLAIN

CITY           SKY/WX    TMP DP  RH WIND       PRES   REMARKS
AHOSKIE        CLEAR     58  47  66 CALM      30.24R
CLINTON        CLEAR     56  48  75 CALM      30.26S
ELIZABETHTOWN  CLEAR     59  52  77 CALM      30.25S
GOLDSBORO      CLEAR     60  46  61 CALM      30.23R
GREENVILLE     CLEAR     59  48  67 SW6       30.25S
HAVELOCK       CLEAR     56  52  86 CALM      30.27R
KENANSVILLE    CLEAR     51  47  86 CALM      30.27R
KINSTON        CLEAR     56  49  78 SW3       30.26R
NEW BERN       CLEAR     59  53  80 SW5       30.26S
RICHLANDS      CLEAR     52  46  82 CALM      30.26S
ROCKY MOUNT    CLEAR     59  47  64 S3        30.24R
WASHINGTON     CLEAR     60  49  67 CALM      30.25S
WHITEVILLE     PTCLDY    55  52  90 CALM      30.24S

$$

AMZ130-135-150-152-154-156-158-170-250-252-270-ANZ085-086-088-633-658-670-040600-
MARINE OBSERVATIONS

STATION/POSITION TIME  TEMP    WIND        PRES    WAVE   SWELL
                       AIR SEA DIR/SP/G            HT/PER HT/PER
                 (UTC) (F)     (DEG/KT/KT) (MB)    (FT/S) (FT/S)
CHESAPEAKE LIGHT 0500   64     220/ 18/ 19 1023.3
64 E VA BEACH    0450   62 62  240/ 12/ 16 1023.0    5/10   5/10
DUCK             0412   66 55  210/ 11/ 14 1022.6
2 E DUCK         0411      56                N/A     4/13   2/13
OREGON INLET     0412   64 63  210/  8/  8 1023.9
13E OREGON INLT  0500      57                N/A     4/10   2/11
HATTERAS CG      0412   65 62  240/  5/  8 1023.8
DIAMOND BUOY     0450   62 60  290/  6/  8 1024.5    4/ 9   3/ 9
CAPE LOOKOUT     0500   66     200/  5/  5 1024.3
BEAUFORT LAB     0412   64 64   CALM  /  1 1023.5
27 SE WRIGHTSVLE 0500   69 71  190/  8/  8   N/A
5 SE WRIGHTSVLE  0408   68 67  200/  4/  8 1024.4
225 S CAPE HAT   0450   68 70   70/ 10/ 12 1024.7    7/11   7/11
41 SE CHARLESTON 0450   73 73  150/ 10/ 12 1023.7    3/10   3/10

$$



USA.gov is the U.S. government's official web portal to all federal, state and local government web resources and services.